Date,TemperatureHighF,TemperatureAvgF,TemperatureLowF,DewpointHighF,DewpointAvgF,DewpointLowF,HumidityHigh,HumidityAvg,HumidityLow,PressureMaxIn,PressureMinIn,WindSpeedMaxMPH,WindSpeedAvgMPH,GustSpeedMaxMPH,PrecipitationSumIn
2013-8-1,74,67,60,62,60,58,92,79,67,30.06,29.92,10,3,17,0.00
2013-8-2,74,69,65,62,62,62,88,79,67,29.99,29.92,11,4,15,0.00
2013-8-3,74,69,65,64,62,60,90,79,69,30.02,29.94,13,4,18,0.00
2013-8-4,78,68,63,64,62,60,91,81,61,30.04,29.94,9,4,17,0.00
2013-8-5,77,67,61,64,61,59,94,83,63,30.03,29.94,11,4,16,0.00
2013-8-6,74,67,61,63,60,58,94,79,65,30.07,29.99,9,4,17,0.00
2013-8-7,74,66,60,62,60,57,95,81,66,30.11,29.99,8,3,16,0.00
2013-8-8,74,66,57,63,60,56,98,83,68,30.03,29.92,11,3,21,0.00
2013-8-9,72,65,58,62,60,57,98,85,70,30.00,29.93,14,3,20,0.00
2013-8-10,61,61,61,60,60,59,95,95,95,29.99,29.99,2,2,4,0.00
2013-8-11,77,68,60,64,61,58,96,80,61,30.01,29.91,8,3,16,0.00
2013-8-12,75,67,60,64,61,58,97,82,68,30.01,29.91,9,3,16,0.00
2013-8-13,77,68,62,66,62,60,95,84,67,30.01,29.89,7,3,13,0.00
2013-8-14,74,67,62,66,63,61,95,88,74,29.95,29.85,10,3,16,0.00
2013-8-15,74,68,64,65,64,62,94,86,75,29.97,29.90,11,4,16,0.00
2013-8-16,80,70,63,67,65,63,98,84,59,29.99,29.91,8,3,15,0.00
2013-8-17,85,71,63,66,64,62,98,80,50,29.97,29.83,11,3,15,0.00
2013-8-18,72,69,64,65,64,62,93,84,78,29.90,29.88,11,4,13,0.00
2013-8-19,74,68,66,65,64,63,93,85,73,29.98,29.87,8,3,15,0.00
2013-8-20,82,70,63,66,63,61,95,81,55,29.96,29.86,7,3,14,0.00
2013-8-21,86,71,61,67,62,59,98,75,48,29.94,29.85,8,3,15,0.00
2013-8-22,89,73,62,65,61,56,94,69,34,29.94,29.82,11,3,15,0.00
2013-8-23,86,71,61,65,62,58,97,75,39,29.89,29.75,9,3,16,0.00
2013-8-24,71,64,59,65,61,58,99,90,78,29.86,29.82,11,2,17,0.00
2013-8-25,79,67,61,64,62,60,98,85,60,29.93,29.86,7,3,13,0.00
2013-8-26,87,73,62,67,62,57,98,73,37,29.93,29.83,10,3,14,0.00
2013-8-27,88,73,67,66,63,58,90,72,40,29.87,29.78,10,4,16,0.00
2013-8-28,91,76,65,66,62,49,91,64,27,29.88,29.79,10,3,14,0.00
2013-8-29,96,79,65,69,63,55,94,63,30,29.94,29.87,9,2,14,0.00
2013-8-30,88,78,71,70,67,65,87,71,53,29.99,29.91,9,3,16,0.00
2013-8-31,91,80,72,74,70,65,86,71,56,29.98,29.88,10,3,15,0.00